QPF
0.03 0.04 0.11 0.18 0.16 0.11 0.09 0.11 0.11 0.10 0.07 0.04 0.05 0.06 0.07 0.06 0.05 0.05 0.05 0.06 0.07 0.06 0.07 0.09 0.07 0.06 0.05 0.07 0.07 0.07 0.06 0.06 0.05 0.04 0.05 0.04 0.03 0.03 0.03 0.03 0.04 0.04 0.05
0.03 0.04 0.08 0.13 0.16 0.11 0.08 0.09 0.09 0.10 0.08 0.06 0.04 0.05 0.06 0.09 0.09 0.07 0.06 0.05 0.06 0.07 0.07 0.06 0.06 0.05 0.05 0.07 0.07 0.06 0.06 0.06 0.05 0.05 0.07 0.07 0.05 0.06 0.06 0.05 0.04 0.06 0.09
0.02 0.04 0.08 0.10 0.10 0.11 0.07 0.06 0.08 0.08 0.07 0.05 0.05 0.04 0.04 0.06 0.08 0.09 0.08 0.05 0.06 0.07 0.06 0.05 0.05 0.05 0.04 0.05 0.05 0.06 0.07 0.07 0.06 0.06 0.07 0.07 0.05 0.05 0.06 0.06 0.06 0.06 0.08
0.02 0.04 0.07 0.10 0.08 0.08 0.07 0.08 0.11 0.08 0.05 0.05 0.06 0.06 0.06 0.07 0.09 0.09 0.08 0.06 0.05 0.07 0.08 0.05 0.04 0.04 0.04 0.05 0.05 0.06 0.07 0.07 0.08 0.06 0.04 0.05 0.04 0.03 0.03 0.04 0.05 0.06 0.06
0.03 0.04 0.06 0.13 0.12 0.13 0.13 0.11 0.08 0.07 0.05 0.04 0.04 0.08 0.10 0.10 0.12 0.09 0.07 0.06 0.05 0.06 0.08 0.07 0.06 0.06 0.06 0.07 0.07 0.08 0.09 0.07 0.06 0.06 0.04 0.05 0.06 0.05 0.05 0.04 0.05 0.05 0.05
0.03 0.05 0.09 0.16 0.20 0.15 0.13 0.13 0.10 0.08 0.07 0.06 0.05 0.10 0.14 0.15 0.11 0.06 0.05 0.06 0.06 0.06 0.09 0.10 0.11 0.10 0.09 0.09 0.09 0.07 0.06 0.06 0.07 0.08 0.06 0.05 0.04 0.04 0.04 0.04 0.04 0.05 0.06
0.02 0.06 0.11 0.14 0.22 0.17 0.13 0.11 0.13 0.13 0.11 0.08 0.06 0.06 0.07 0.07 0.05 0.05 0.05 0.06 0.07 0.07 0.08 0.10 0.12 0.11 0.10 0.10 0.08 0.06 0.06 0.07 0.07 0.07 0.05 0.05 0.05 0.04 0.04 0.04 0.04 0.05 0.05
0.03 0.06 0.10 0.11 0.19 0.17 0.14 0.13 0.14 0.18 0.15 0.11 0.09 0.04 0.03 0.03 0.05 0.06 0.05 0.06 0.07 0.08 0.08 0.08 0.08 0.09 0.10 0.08 0.06 0.05 0.07 0.07 0.04 0.04 0.04 0.03 0.04 0.05 0.05 0.05 0.04 0.04 0.04
0.02 0.03 0.04 0.06 0.12 0.13 0.12 0.13 0.17 0.41 0.26 0.17 0.13 0.09 0.04 0.03 0.04 0.05 0.05 0.06 0.07 0.08 0.08 0.09 0.08 0.08 0.06 0.05 0.05 0.06 0.07 0.07 0.04 0.03 0.03 0.03 0.03 0.04 0.05 0.05 0.05 0.06 0.06
0.01 0.01 0.03 0.05 0.07 0.07 0.09 0.12 0.19 0.34 0.26 0.22 0.16 0.12 0.07 0.05 0.04 0.05 0.05 0.06 0.07 0.09 0.11 0.10 0.08 0.07 0.05 0.05 0.06 0.08 0.07 0.07 0.04 0.03 0.04 0.03 0.02 0.03 0.04 0.05 0.05 0.05 0.06
0.01 0.01 0.02 0.02 0.03 0.03 0.04 0.07 0.19 0.12 0.14 0.21 0.13 0.09 0.10 0.11 0.10 0.09 0.06 0.07 0.08 0.12 0.10 0.07 0.07 0.07 0.07 0.08 0.08 0.09 0.05 0.03 0.04 0.03 0.03 0.02 0.02 0.03 0.03 0.03 0.04 0.04 0.05
0.01 0.00 0.01 0.01 0.01 0.01 0.01 0.04 0.14 0.13 0.18 0.15 0.07 0.07 0.09 0.10 0.11 0.08 0.08 0.09 0.10 0.11 0.08 0.07 0.07 0.06 0.06 0.06 0.06 0.06 0.04 0.02 0.03 0.03 0.03 0.01 0.02 0.03 0.05 0.04 0.05 0.06 0.07
0.00 0.00 0.00 0.00 0.00 0.00 0.01 0.02 0.05 0.08 0.14 0.10 0.07 0.07 0.08 0.08 0.07 0.07 0.09 0.10 0.11 0.09 0.09 0.08 0.07 0.07 0.05 0.04 0.05 0.05 0.04 0.03 0.02 0.02 0.02 0.02 0.02 0.03 0.05 0.06 0.06 0.06 0.09
0.00 0.00 0.00 0.00 0.01 0.00 0.01 0.02 0.03 0.04 0.07 0.08 0.06 0.07 0.07 0.06 0.05 0.05 0.07 0.09 0.09 0.10 0.11 0.07 0.08 0.08 0.07 0.04 0.03 0.03 0.03 0.03 0.02 0.01 0.01 0.01 0.02 0.04 0.08 0.09 0.07 0.07 0.09
0.00 0.00 0.00 0.00 0.00 0.01 0.02 0.02 0.02 0.03 0.04 0.05 0.06 0.06 0.06 0.04 0.04 0.04 0.06 0.09 0.09 0.10 0.10 0.08 0.09 0.09 0.07 0.06 0.04 0.02 0.03 0.03 0.03 0.02 0.02 0.02 0.03 0.04 0.06 0.07 0.08 0.09 0.09
0.01 0.00 0.00 0.00 0.00 0.00 0.01 0.02 0.03 0.03 0.03 0.04 0.04 0.05 0.05 0.05 0.04 0.05 0.07 0.11 0.13 0.10 0.08 0.09 0.12 0.11 0.08 0.07 0.04 0.03 0.04 0.04 0.03 0.04 0.04 0.05 0.05 0.04 0.05 0.06 0.09 0.10 0.10
0.01 0.01 0.01 0.00 0.00 0.00 0.01 0.01 0.02 0.03 0.02 0.04 0.04 0.04 0.07 0.06 0.05 0.04 0.06 0.12 0.13 0.09 0.08 0.08 0.08 0.06 0.05 0.05 0.05 0.05 0.04 0.03 0.03 0.03 0.04 0.05 0.06 0.06 0.06 0.06 0.07 0.09 0.10
0.02 0.01 0.01 0.00 0.00 0.01 0.01 0.02 0.02 0.02 0.02 0.05 0.05 0.04 0.05 0.05 0.05 0.04 0.05 0.11 0.12 0.07 0.07 0.07 0.08 0.06 0.05 0.05 0.04 0.04 0.02 0.02 0.03 0.04 0.06 0.06 0.05 0.04 0.04 0.05 0.06 0.06 0.10
0.01 0.01 0.00 0.00 0.00 0.01 0.02 0.02 0.02 0.01 0.02 0.05 0.06 0.04 0.05 0.05 0.04 0.05 0.06 0.11 0.11 0.07 0.07 0.07 0.06 0.06 0.06 0.06 0.05 0.03 0.02 0.03 0.04 0.04 0.04 0.04 0.04 0.04 0.05 0.05 0.06 0.06 0.06
0.00 0.00 0.00 0.01 0.01 0.01 0.01 0.01 0.02 0.02 0.02 0.03 0.06 0.07 0.06 0.05 0.04 0.04 0.05 0.09 0.10 0.08 0.07 0.07 0.06 0.06 0.07 0.07 0.04 0.03 0.03 0.03 0.03 0.03 0.03 0.03 0.03 0.03 0.04 0.06 0.07 0.05 0.05
0.00 0.00 0.00 0.01 0.00 0.01 0.01 0.01 0.01 0.02 0.02 0.02 0.04 0.06 0.06 0.04 0.04 0.04 0.04 0.08 0.08 0.06 0.07 0.06 0.05 0.05 0.06 0.06 0.06 0.06 0.04 0.04 0.05 0.05 0.04 0.03 0.03 0.03 0.03 0.05 0.07 0.07 0.06
0.00 0.00 0.01 0.01 0.01 0.01 0.01 0.01 0.01 0.01 0.01 0.01 0.02 0.03 0.04 0.04 0.04 0.04 0.07 0.07 0.06 0.06 0.05 0.05 0.04 0.04 0.04 0.05 0.08 0.09 0.06 0.07 0.07 0.05 0.04 0.03 0.02 0.02 0.03 0.03 0.06 0.07 0.08
0.00 0.00 0.00 0.01 0.01 0.01 0.01 0.00 0.01 0.01 0.01 0.02 0.02 0.02 0.05 0.06 0.05 0.06 0.07 0.07 0.07 0.05 0.05 0.06 0.05 0.04 0.05 0.05 0.06 0.07 0.06 0.06 0.07 0.05 0.03 0.02 0.02 0.02 0.03 0.04 0.04 0.06 0.06
0.00 0.00 0.00 0.01 0.01 0.01 0.01 0.01 0.01 0.01 0.01 0.02 0.02 0.02 0.04 0.07 0.07 0.06 0.07 0.09 0.10 0.08 0.07 0.05 0.05 0.05 0.06 0.07 0.06 0.07 0.06 0.05 0.07 0.06 0.04 0.03 0.03 0.03 0.03 0.03 0.03 0.05 0.05
0.00 0.00 0.00 0.01 0.01 0.01 0.01 0.01 0.01 0.01 0.01 0.03 0.02 0.02 0.04 0.09 0.09 0.06 0.06 0.08 0.08 0.08 0.08 0.06 0.06 0.06 0.06 0.08 0.09 0.08 0.07 0.06 0.06 0.06 0.05 0.05 0.04 0.04 0.03 0.03 0.04 0.06 0.06
0.00 0.00 0.00 0.00 0.00 0.00 0.01 0.01 0.01 0.01 0.02 0.03 0.03 0.03 0.04 0.07 0.08 0.06 0.05 0.06 0.08 0.08 0.08 0.07 0.07 0.07 0.08 0.09 0.10 0.09 0.09 0.10 0.08 0.07 0.06 0.06 0.06 0.05 0.04 0.04 0.03 0.04 0.04
MSLP
1011.11 1010.76 1010.56 1010.56 1010.73 1011.00 1011.31 1011.57 1011.73 1011.78 1011.75 1011.68 1011.63 1011.65 1011.74 1011.91 1012.10 1012.27 1012.37 1012.39 1012.33 1012.22 1012.12 1012.07 1012.11 1012.26 1012.49 1012.78 1013.08 1013.38 1013.66 1013.92 1014.18 1014.48 1014.81 1015.18 1015.55 1015.90 1016.18 1016.36 1016.42 1016.40 1016.32
1011.24 1010.98 1010.88 1010.95 1011.17 1011.46 1011.77 1012.01 1012.14 1012.17 1012.11 1012.03 1011.97 1011.98 1012.07 1012.23 1012.42 1012.58 1012.67 1012.68 1012.62 1012.53 1012.45 1012.43 1012.50 1012.66 1012.89 1013.17 1013.45 1013.70 1013.93 1014.13 1014.34 1014.59 1014.88 1015.21 1015.57 1015.91 1016.20 1016.39 1016.49 1016.49 1016.43
1011.29 1011.15 1011.16 1011.31 1011.58 1011.90 1012.20 1012.44 1012.56 1012.56 1012.50 1012.40 1012.34 1012.34 1012.42 1012.56 1012.71 1012.84 1012.91 1012.90 1012.84 1012.77 1012.71 1012.73 1012.82 1013.00 1013.24 1013.49 1013.72 1013.92 1014.07 1014.21 1014.35 1014.53 1014.78 1015.08 1015.43 1015.77 1016.07 1016.30 1016.43 1016.48 1016.48
1011.31 1011.29 1011.39 1011.62 1011.94 1012.29 1012.60 1012.82 1012.94 1012.94 1012.88 1012.79 1012.73 1012.72 1012.79 1012.89 1013.01 1013.10 1013.13 1013.11 1013.05 1012.99 1012.97 1013.02 1013.14 1013.33 1013.56 1013.78 1013.95 1014.07 1014.14 1014.19 1014.25 1014.37 1014.57 1014.84 1015.17 1015.52 1015.84 1016.10 1016.29 1016.40 1016.46
1011.35 1011.42 1011.61 1011.90 1012.25 1012.62 1012.93 1013.15 1013.26 1013.28 1013.22 1013.15 1013.11 1013.11 1013.16 1013.25 1013.33 1013.39 1013.39 1013.36 1013.30 1013.26 1013.27 1013.34 1013.49 1013.68 1013.89 1014.06 1014.17 1014.20 1014.18 1014.13 1014.11 1014.17 1014.31 1014.56 1014.87 1015.23 1015.57 1015.87 1016.11 1016.29 1016.42
1011.44 1011.59 1011.83 1012.15 1012.52 1012.89 1013.19 1013.41 1013.52 1013.54 1013.51 1013.47 1013.46 1013.48 1013.54 1013.61 1013.67 1013.70 1013.69 1013.64 1013.59 1013.57 1013.61 1013.71 1013.87 1014.06 1014.23 1014.34 1014.37 1014.32 1014.21 1014.08 1013.99 1013.98 1014.09 1014.31 1014.62 1014.98 1015.34 1015.67 1015.95 1016.18 1016.37
1011.61 1011.79 1012.06 1012.39 1012.75 1013.10 1013.38 1013.58 1013.69 1013.73 1013.73 1013.72 1013.74 1013.79 1013.87 1013.94 1014.00 1014.01 1013.99 1013.94 1013.90 1013.90 1013.95 1014.07 1014.24 1014.41 1014.54 1014.60 1014.56 1014.42 1014.23 1014.04 1013.89 1013.85 1013.93 1014.14 1014.45 1014.81 1015.19 1015.54 1015.84 1016.09 1016.32
1011.85 1012.04 1012.30 1012.62 1012.95 1013.26 1013.51 1013.68 1013.78 1013.82 1013.85 1013.88 1013.93 1014.01 1014.11 1014.19 1014.25 1014.26 1014.23 1014.18 1014.15 1014.16 1014.23 1014.36 1014.52 1014.67 1014.77 1014.77 1014.67 1014.48 1014.23 1013.99 1013.82 1013.76 1013.85 1014.06 1014.38 1014.75 1015.13 1015.48 1015.79 1016.05 1016.28
1012.13 1012.31 1012.56 1012.84 1013.13 1013.38 1013.58 1013.72 1013.79 1013.83 1013.87 1013.92 1014.00 1014.10 1014.21 1014.30 1014.35 1014.36 1014.32 1014.28 1014.25 1014.26 1014.34 1014.47 1014.62 1014.76 1014.83 1014.79 1014.66 1014.43 1014.16 1013.91 1013.75 1013.71 1013.81 1014.05 1014.38 1014.76 1015.14 1015.49 1015.78 1016.02 1016.23
1012.42 1012.59 1012.81 1013.05 1013.28 1013.48 1013.63 1013.71 1013.76 1013.78 1013.80 1013.85 1013.94 1014.05 1014.16 1014.25 1014.29 1014.28 1014.24 1014.18 1014.15 1014.17 1014.24 1014.37 1014.51 1014.64 1014.69 1014.64 1014.49 1014.26 1014.00 1013.77 1013.63 1013.63 1013.77 1014.04 1014.40 1014.80 1015.18 1015.51 1015.78 1015.99 1016.17
1012.67 1012.83 1013.02 1013.23 1013.42 1013.56 1013.65 1013.69 1013.69 1013.67 1013.67 1013.70 1013.77 1013.87 1013.96 1014.03 1014.05 1014.03 1013.97 1013.90 1013.86 1013.87 1013.94 1014.06 1014.19 1014.31 1014.35 1014.30 1014.16 1013.95 1013.72 1013.54 1013.44 1013.49 1013.68 1014.00 1014.39 1014.80 1015.19 1015.51 1015.75 1015.93 1016.07
1012.86 1013.01 1013.18 1013.37 1013.52 1013.62 1013.67 1013.66 1013.61 1013.55 1013.51 1013.51 1013.54 1013.61 1013.67 1013.71 1013.71 1013.66 1013.58 1013.49 1013.43 1013.43 1013.48 1013.59 1013.72 1013.83 1013.88 1013.85 1013.73 1013.56 1013.37 1013.23 1013.19 1013.29 1013.53 1013.88 1014.30 1014.74 1015.13 1015.45 1015.67 1015.82 1015.93
1012.94 1013.10 1013.27 1013.44 1013.58 1013.66 1013.67 1013.63 1013.54 1013.44 1013.36 1013.31 1013.31 1013.33 1013.36 1013.36 1013.33 1013.26 1013.15 1013.05 1012.97 1012.94 1012.98 1013.07 1013.19 1013.30 1013.36 1013.35 1013.26 1013.13 1012.99 1012.89 1012.90 1013.04 1013.31 1013.69 1014.13 1014.58 1014.98 1015.30 1015.53 1015.67 1015.76
1012.93 1013.10 1013.28 1013.45 1013.59 1013.66 1013.66 1013.60 1013.49 1013.36 1013.24 1013.15 1013.11 1013.10 1013.09 1013.07 1013.01 1012.92 1012.80 1012.67 1012.57 1012.53 1012.54 1012.61 1012.72 1012.82 1012.89 1012.90 1012.84 1012.74 1012.64 1012.58 1012.61 1012.77 1013.05 1013.44 1013.88 1014.34 1014.75 1015.08 1015.32 1015.47 1015.56
1012.83 1013.01 1013.20 1013.39 1013.54 1013.62 1013.63 1013.56 1013.44 1013.30 1013.16 1013.05 1012.98 1012.95 1012.92 1012.88 1012.82 1012.71 1012.58 1012.45 1012.33 1012.26 1012.25 1012.30 1012.39 1012.48 1012.55 1012.57 1012.53 1012.46 1012.38 1012.34 1012.38 1012.54 1012.80 1013.17 1013.60 1014.04 1014.46 1014.80 1015.06 1015.24 1015.35
1012.65 1012.83 1013.04 1013.25 1013.42 1013.53 1013.56 1013.51 1013.40 1013.27 1013.13 1013.01 1012.93 1012.89 1012.86 1012.82 1012.76 1012.67 1012.54 1012.40 1012.28 1012.19 1012.16 1012.18 1012.24 1012.31 1012.38 1012.40 1012.38 1012.33 1012.26 1012.22 1012.25 1012.37 1012.60 1012.92 1013.31 1013.73 1014.13 1014.48 1014.76 1014.97 1015.12
1012.40 1012.59 1012.81 1013.03 1013.23 1013.37 1013.43 1013.41 1013.34 1013.22 1013.10 1013.00 1012.93 1012.89 1012.87 1012.85 1012.81 1012.74 1012.63 1012.50 1012.38 1012.28 1012.22 1012.22 1012.25 1012.31 1012.36 1012.39 1012.38 1012.33 1012.27 1012.22 1012.22 1012.30 1012.47 1012.72 1013.05 1013.42 1013.79 1014.13 1014.43 1014.67 1014.86
1012.10 1012.29 1012.51 1012.75 1012.97 1013.14 1013.24 1013.27 1013.23 1013.15 1013.05 1012.97 1012.92 1012.90 1012.90 1012.91 1012.89 1012.85 1012.78 1012.67 1012.56 1012.46 1012.39 1012.36 1012.38 1012.42 1012.47 1012.49 1012.49 1012.45 1012.39 1012.33 1012.29 1012.31 1012.41 1012.58 1012.83 1013.13 1013.45 1013.76 1014.06 1014.32 1014.55
1011.71 1011.91 1012.14 1012.39 1012.64 1012.84 1012.99 1013.06 1013.07 1013.02 1012.95 1012.89 1012.86 1012.86 1012.88 1012.92 1012.94 1012.94 1012.90 1012.82 1012.73 1012.64 1012.58 1012.55 1012.55 1012.58 1012.62 1012.66 1012.66 1012.63 1012.57 1012.49 1012.43 1012.39 1012.41 1012.50 1012.65 1012.86 1013.11 1013.38 1013.65 1013.92 1014.16
1011.23 1011.44 1011.68 1011.96 1012.24 1012.48 1012.67 1012.79 1012.84 1012.83 1012.79 1012.75 1012.73 1012.74 1012.78 1012.84 1012.89 1012.93 1012.93 1012.89 1012.84 1012.78 1012.72 1012.70 1012.70 1012.74 1012.78 1012.82 1012.84 1012.82 1012.77 1012.68 1012.59 1012.50 1012.45 1012.44 1012.49 1012.60 1012.77 1012.97 1013.20 1013.45 1013.69
1010.62 1010.86 1011.13 1011.45 1011.76 1012.06 1012.30 1012.47 1012.56 1012.59 1012.57 1012.54 1012.53 1012.54 1012.58 1012.65 1012.72 1012.79 1012.83 1012.85 1012.84 1012.81 1012.79 1012.79 1012.81 1012.85 1012.91 1012.96 1012.99 1012.99 1012.94 1012.86 1012.74 1012.61 1012.49 1012.40 1012.36 1012.36 1012.43 1012.55 1012.71 1012.92 1013.15
1009.88 1010.16 1010.48 1010.85 1011.22 1011.57 1011.87 1012.09 1012.23 1012.30 1012.30 1012.28 1012.26 1012.26 1012.30 1012.36 1012.45 1012.54 1012.63 1012.69 1012.73 1012.75 1012.77 1012.80 1012.84 1012.90 1012.97 1013.04 1013.09 1013.10 1013.07 1012.98 1012.86 1012.70 1012.53 1012.36 1012.23 1012.14 1012.10 1012.13 1012.21 1012.36 1012.56
1008.99 1009.34 1009.73 1010.16 1010.60 1011.02 1011.39 1011.68 1011.87 1011.97 1012.00 1011.99 1011.96 1011.94 1011.96 1012.02 1012.11 1012.22 1012.33 1012.44 1012.53 1012.61 1012.68 1012.74 1012.81 1012.89 1012.98 1013.05 1013.11 1013.14 1013.12 1013.05 1012.92 1012.74 1012.54 1012.32 1012.11 1011.94 1011.80 1011.73 1011.74 1011.81 1011.96
1008.00 1008.42 1008.89 1009.40 1009.92 1010.42 1010.86 1011.22 1011.47 1011.62 1011.68 1011.67 1011.64 1011.61 1011.61 1011.64 1011.73 1011.85 1011.99 1012.13 1012.27 1012.40 1012.51 1012.61 1012.71 1012.81 1012.90 1012.99 1013.05 1013.09 1013.08 1013.03 1012.91 1012.74 1012.52 1012.28 1012.02 1011.77 1011.56 1011.40 1011.32 1011.32 1011.40
1006.97 1007.46 1008.00 1008.59 1009.18 1009.75 1010.27 1010.70 1011.02 1011.22 1011.32 1011.33 1011.30 1011.26 1011.24 1011.26 1011.34 1011.46 1011.61 1011.79 1011.97 1012.13 1012.28 1012.42 1012.53 1012.64 1012.74 1012.82 1012.89 1012.94 1012.95 1012.91 1012.82 1012.67 1012.47 1012.22 1011.94 1011.66 1011.39 1011.16 1010.99 1010.91 1010.92
1005.97 1006.52 1007.11 1007.75 1008.40 1009.04 1009.63 1010.12 1010.51 1010.76 1010.90 1010.94 1010.93 1010.88 1010.85 1010.86 1010.92 1011.04 1011.21 1011.40 1011.60 1011.80 1011.98 1012.13 1012.26 1012.37 1012.46 1012.54 1012.61 1012.67 1012.69 1012.69 1012.64 1012.54 1012.37 1012.15 1011.89 1011.59 1011.29 1011.00 1010.77 1010.61 1010.54
Thickness
5808 5808 5799 5798 5796 5795 5794 5793 5792 5792 5791 5790 5789 5788 5786 5785 5783 5782 5781 5780 5779 5777 5775 5774 5772 5771 5770 5769 5768 5766 5765 5764 5763 5762 5760 5759 5758 5758 5757 5757 5756 5757 5755
5811 5808 5799 5798 5796 5794 5793 5792 5791 5790 5790 5789 5788 5787 5786 5784 5782 5781 5780 5779 5778 5776 5775 5773 5771 5770 5769 5768 5767 5765 5764 5763 5762 5760 5759 5758 5757 5757 5756 5755 5756 5757 5754
5812 5808 5801 5797 5795 5793 5792 5791 5789 5788 5788 5787 5787 5786 5785 5783 5781 5780 5779 5778 5777 5776 5774 5772 5771 5769 5768 5767 5765 5764 5763 5761 5760 5759 5759 5760 5758 5756 5755 5754 5754 5752 5751
5812 5808 5802 5796 5794 5792 5791 5789 5787 5787 5786 5785 5785 5784 5784 5782 5780 5779 5778 5777 5776 5775 5773 5771 5770 5768 5767 5766 5764 5763 5762 5761 5759 5759 5760 5761 5760 5755 5754 5753 5752 5751 5750
5812 5809 5801 5795 5793 5791 5789 5788 5786 5786 5785 5784 5783 5783 5782 5781 5779 5778 5776 5775 5774 5773 5772 5770 5769 5767 5766 5765 5764 5762 5761 5760 5759 5759 5760 5760 5759 5754 5752 5751 5750 5749 5748
5811 5808 5801 5795 5791 5789 5787 5786 5785 5784 5784 5783 5782 5781 5781 5779 5777 5776 5775 5774 5773 5772 5770 5769 5768 5766 5765 5764 5762 5761 5760 5759 5758 5760 5760 5759 5757 5753 5751 5750 5748 5747 5746
5810 5807 5801 5794 5790 5788 5786 5785 5783 5783 5782 5781 5780 5779 5778 5777 5776 5775 5774 5773 5772 5770 5769 5768 5767 5765 5764 5762 5761 5760 5759 5758 5760 5760 5758 5757 5755 5751 5749 5748 5747 5746 5745
5810 5806 5801 5793 5790 5788 5785 5784 5782 5781 5780 5779 5778 5778 5776 5775 5774 5774 5773 5772 5771 5769 5768 5767 5766 5764 5762 5761 5760 5759 5758 5758 5760 5760 5758 5756 5752 5750 5748 5747 5746 5745 5744
5810 5806 5802 5798 5792 5788 5785 5783 5781 5780 5778 5777 5777 5776 5775 5774 5773 5772 5771 5771 5770 5769 5767 5766 5765 5763 5761 5760 5759 5758 5757 5757 5759 5759 5759 5756 5752 5749 5748 5746 5745 5744 5743
5808 5806 5803 5799 5795 5792 5788 5783 5781 5780 5778 5777 5776 5775 5775 5774 5773 5772 5771 5770 5769 5768 5767 5766 5764 5762 5761 5760 5759 5758 5757 5757 5760 5760 5759 5756 5751 5749 5747 5746 5745 5744 5742
5804 5804 5803 5801 5796 5794 5791 5786 5783 5781 5780 5778 5777 5775 5775 5776 5775 5773 5772 5770 5769 5767 5766 5765 5764 5762 5761 5760 5759 5758 5758 5760 5761 5760 5758 5754 5751 5749 5747 5746 5745 5743 5742
5801 5802 5802 5800 5797 5794 5792 5788 5786 5785 5782 5780 5778 5777 5776 5775 5775 5775 5771 5770 5769 5767 5766 5765 5763 5762 5762 5764 5762 5759 5761 5762 5762 5761 5758 5753 5750 5749 5747 5746 5744 5743 5741
5802 5802 5802 5799 5796 5795 5792 5790 5788 5785 5783 5781 5778 5777 5776 5776 5776 5776 5774 5772 5770 5769 5768 5766 5766 5766 5766 5765 5764 5763 5763 5763 5763 5762 5759 5753 5751 5749 5747 5746 5744 5743 5742
5802 5801 5801 5799 5796 5793 5792 5790 5788 5787 5784 5783 5779 5778 5778 5777 5776 5776 5774 5774 5772 5771 5769 5768 5767 5766 5765 5764 5764 5764 5764 5764 5763 5762 5758 5754 5751 5749 5747 5746 5745 5743 5742
5802 5801 5800 5798 5795 5792 5790 5789 5789 5786 5786 5783 5780 5779 5778 5778 5776 5776 5773 5773 5773 5772 5770 5768 5767 5766 5765 5765 5764 5764 5763 5763 5763 5762 5758 5754 5752 5750 5748 5746 5745 5744 5742
5805 5803 5801 5798 5795 5792 5789 5788 5787 5786 5783 5783 5782 5780 5778 5778 5776 5775 5773 5772 5772 5771 5770 5769 5768 5767 5767 5766 5765 5764 5763 5763 5762 5760 5759 5756 5753 5751 5749 5747 5746 5745 5744
5806 5804 5801 5799 5796 5792 5790 5789 5788 5787 5785 5784 5782 5779 5778 5778 5775 5775 5774 5773 5772 5771 5769 5769 5768 5769 5767 5767 5766 5765 5764 5763 5762 5760 5759 5757 5756 5752 5750 5748 5746 5745 5744
5808 5804 5802 5801 5797 5793 5789 5787 5788 5787 5785 5784 5783 5781 5779 5777 5776 5774 5775 5774 5772 5771 5771 5769 5769 5768 5767 5767 5766 5766 5766 5764 5762 5761 5759 5758 5757 5756 5752 5749 5747 5745 5744
5808 5805 5801 5800 5797 5793 5790 5787 5786 5785 5784 5783 5782 5781 5779 5777 5776 5775 5775 5773 5772 5772 5771 5770 5768 5767 5765 5764 5766 5765 5766 5765 5763 5762 5760 5759 5757 5755 5754 5750 5748 5745 5744
5810 5806 5802 5799 5796 5794 5791 5788 5786 5785 5784 5783 5781 5779 5778 5777 5776 5775 5775 5772 5773 5772 5769 5768 5766 5765 5764 5764 5766 5766 5766 5766 5764 5763 5761 5761 5759 5757 5755 5753 5750 5748 5744
5810 5805 5802 5799 5796 5793 5791 5789 5785 5783 5783 5783 5782 5779 5778 5777 5776 5775 5776 5773 5772 5771 5768 5768 5767 5765 5764 5764 5762 5761 5764 5766 5764 5762 5761 5761 5760 5758 5755 5754 5752 5751 5748
5809 5806 5802 5799 5797 5795 5792 5790 5787 5785 5784 5784 5782 5779 5778 5777 5776 5776 5774 5773 5772 5770 5767 5766 5764 5764 5764 5764 5760 5758 5756 5758 5759 5763 5761 5759 5758 5758 5756 5755 5752 5749 5748
5810 5807 5805 5800 5798 5796 5794 5792 5789 5785 5784 5783 5781 5779 5778 5777 5776 5774 5773 5772 5771 5770 5768 5765 5764 5762 5761 5762 5762 5758 5753 5751 5755 5759 5759 5758 5756 5755 5755 5754 5752 5749 5747
5813 5810 5806 5802 5798 5796 5794 5792 5787 5783 5781 5781 5780 5780 5779 5777 5775 5774 5772 5770 5769 5770 5767 5766 5766 5764 5760 5759 5760 5759 5757 5756 5750 5749 5754 5756 5755 5752 5752 5753 5751 5748 5746
5815 5812 5808 5803 5799 5796 5794 5791 5787 5785 5783 5783 5781 5778 5777 5777 5775 5773 5771 5770 5768 5768 5766 5765 5764 5762 5762 5759 5758 5756 5754 5753 5752 5746 5745 5748 5751 5752 5752 5750 5748 5747 5745
5815 5812 5808 5802 5798 5795 5793 5791 5787 5784 5781 5779 5777 5776 5776 5777 5775 5773 5771 5769 5767 5766 5764 5763 5761 5761 5760 5758 5757 5756 5753 5749 5747 5747 5744 5743 5744 5748 5750 5748 5747 5745 5743